EW4858 Weather Reports


Display with metric or nautical units.
time (UTC)temp
F
wind
direction
speed
MPH
gust
MPH
rain 1hr
in
rain 24hr
in
rain mn
in
humidity
%
barometer
mb
20260507073021 58 163 0.0 0.0 0.00 0.00 0.00 85 1013.4
20260507071548 59 163 1.0 4.0 0.00 0.00 0.00 84 1013.5
20260507070015 59 113 0.0 0.0 0.00 0.00 0.00 84 1013.5
20260507064516 60 113 0.0 3.0 0.00 0.00 0.00 83 1013.7
20260507063015 59 120 0.0 4.0 0.00 0.00 0.00 83 1013.8
20260507061517 59 96 0.0 0.0 0.00 0.00 0.00 82 1013.6
20260507060014 60 97 0.0 0.0 0.00 0.00 0.00 81 1013.7
20260507054514 61 97 0.0 0.0 0.00 0.00 0.00 80 1013.6
20260507053014 61 96 0.0 0.0 0.00 0.00 0.00 80 1013.6
20260507051526 61 97 0.0 0.0 0.00 0.00 0.00 80 1013.6
20260507050013 61 96 0.0 0.0 0.00 0.00 0.00 79 1013.6
20260507044512 61 98 0.0 3.0 0.00 0.00 0.00 78 1013.6
20260507043012 62 78 1.0 5.0 0.00 0.00 0.00 77 1013.4
20260507041511 62 78 2.0 5.0 0.00 0.00 0.00 76 1013.3
20260507040009 63 78 0.0 4.0 0.00 0.00 0.00 74 1013.3
20260507034521 63 94 1.0 5.0 0.00 0.00 0.00 73 1013.1
20260507033015 63 107 3.0 7.0 0.00 0.00 0.00 70 1013.0
20260507031508 64 121 3.0 7.0 0.00 0.00 0.00 71 1012.8
20260507030008 64 87 2.0 6.0 0.00 0.00 0.00 71 1012.8
20260507024507 65 86 2.0 7.0 0.00 0.00 0.00 70 1012.5
20260507023016 65 85 4.0 9.0 0.00 0.00 0.00 69 1012.5
20260507021507 66 59 3.0 9.0 0.00 0.00 0.00 67 1012.4
20260507020007 67 90 5.0 11.0 0.00 0.00 0.00 66 1012.3
20260507014511 68 52 5.0 10.0 0.00 0.00 0.00 64 1012.2
20260507013005 68 88 5.0 10.0 0.00 0.00 0.00 62 1012.2
20260507011506 69 85 5.0 11.0 0.00 0.00 0.00 62 1012.1
20260507010004 69 77 6.0 11.0 0.00 0.00 0.00 60 1012.1
20260507004504 70 116 5.0 12.0 0.00 0.00 0.00 60 1012.0
20260507003004 69 109 5.0 11.0 0.00 0.00 0.00 60 1012.0
20260507001502 70 102 8.0 13.0 0.00 0.00 0.00 60 1011.8
20260507000002 70 112 5.0 9.0 0.00 0.00 0.00 60 1011.7
20260506234501 70 121 6.0 13.0 0.00 0.00 0.00 60 1011.6
20260506233001 71 121 6.0 13.0 0.00 0.00 0.00 59 1011.6
20260506231603 71 101 6.0 13.0 0.00 0.00 0.00 58 1011.6
20260506231501 71 88 7.0 16.0 0.00 0.00 0.00 58 1011.6
20260506230104 72 108 6.0 12.0 0.00 0.00 0.00 57 1011.6
20260506224559 72 104 7.0 11.0 0.00 0.00 0.00 56 1011.7
20260506223110 73 121 6.0 10.0 0.00 0.00 0.00 56 1011.8
20260506221557 73 138 4.0 11.0 0.00 0.00 0.00 55 1011.9
20260506220056 73 78 6.0 13.0 0.00 0.00 0.00 56 1011.9
20260506214603 74 69 6.0 13.0 0.00 0.00 0.00 56 1012.1
20260506213054 74 66 7.0 11.0 0.00 0.00 0.00 54 1012.2
20260506211602 74 105 8.0 14.0 0.00 0.00 0.00 54 1012.1
20260506210056 74 101 8.0 17.0 0.00 0.00 0.00 55 1012.1
20260506204553 74 57 10.0 16.0 0.00 0.00 0.00 55 1012.3
20260506203052 74 46 6.0 11.0 0.00 0.00 0.00 54 1012.3
20260506201548 74 92 6.0 13.0 0.00 0.00 0.00 52 1012.4
20260506200050 74 51 5.0 11.0 0.00 0.00 0.00 50 1012.6
20260506194543 73 35 5.0 10.0 0.00 0.00 0.00 52 1012.8
20260506193141 72 51 5.0 10.0 0.00 0.00 0.00 52 1012.9
20260506191538 71 55 4.0 10.0 0.00 0.00 0.00 53 1013.1
20260506190035 70 88 4.0 10.0 0.00 0.00 0.00 55 1013.3
20260506184533 70 117 4.0 11.0 0.00 0.01 0.00 55 1013.4
20260506183031 69 82 4.0 8.0 0.00 0.01 0.00 56 1013.7
20260506181529 68 96 6.0 11.0 0.00 0.01 0.00 56 1013.8
20260506180025 67 96 5.0 9.0 0.00 0.02 0.00 59 1014.0
20260506174523 66 88 3.0 8.0 0.00 0.02 0.00 62 1014.2
20260506173020 65 87 1.0 10.0 0.00 0.02 0.00 62 1014.4
20260506171521 64 98 3.0 11.0 0.00 0.02 0.00 66 1014.5
20260506170014 63 311 0.0 6.0 0.00 0.06 0.00 67 1014.5
20260506164514 63 22 4.0 9.0 0.00 0.06 0.00 67 1014.4
20260506163011 62 35 2.0 7.0 0.00 0.06 0.00 70 1014.5
20260506161509 61 82 0.0 5.0 0.00 0.06 0.00 70 1014.6
20260506160007 60 113 3.0 6.0 0.00 0.06 0.00 71 1014.5
20260506154506 61 242 0.0 0.0 0.00 0.06 0.00 71 1014.6
20260506153008 60 238 0.0 0.0 0.00 0.06 0.00 73 1014.6
20260506151600 58 238 0.0 0.0 0.00 0.06 0.00 78 1014.7
20260506150059 56 238 0.0 0.0 0.00 0.06 0.00 79 1014.9
20260506144604 55 238 0.0 0.0 0.00 0.12 0.00 81 1014.8
20260506143050 54 235 0.0 0.0 0.00 0.12 0.00 82 1014.8
20260506141546 53 234 0.0 0.0 0.00 0.12 0.00 85 1014.7
20260506140044 52 234 0.0 0.0 0.00 0.12 0.00 86 1014.7
20260506134542 51 234 3.0 5.0 0.00 0.13 0.00 87 1014.6
20260506133044 50 213 0.0 3.0 0.00 0.13 0.00 89 1014.4
20260506131540 50 213 0.0 0.0 0.00 0.13 0.00 89 1014.3
20260506130039 49 213 0.0 0.0 0.00 0.13 0.00 89 1014.1
20260506124539 49 213 0.0 0.0 0.00 0.14 0.00 88 1014.0
20260506123036 50 213 0.0 4.0 0.00 0.14 0.00 89 1013.9
20260506121535 50 213 1.0 4.0 0.00 0.14 0.00 89 1013.8
20260506120035 49 210 0.0 0.0 0.00 0.14 0.00 89 1013.9
20260506114533 50 210 0.0 3.0 0.00 0.14 0.00 89 1013.8
20260506113034 50 209 0.0 5.0 0.00 0.14 0.00 89 1013.8
20260506111533 50 208 2.0 4.0 0.00 0.14 0.00 89 1013.7
20260506110034 50 207 1.0 3.0 0.00 0.14 0.00 89 1013.6
20260506104531 50 207 2.0 4.0 0.00 0.15 0.00 89 1013.7
20260506103031 50 207 0.0 0.0 0.00 0.15 0.00 89 1013.6
20260506101531 50 207 0.0 0.0 0.00 0.15 0.00 89 1013.5
20260506100030 50 207 1.0 3.0 0.00 0.15 0.00 88 1013.4
20260506094528 50 207 0.0 0.0 0.00 0.17 0.00 88 1013.4
20260506093033 50 207 0.0 2.0 0.00 0.17 0.00 88 1013.4
20260506091526 51 207 1.0 2.0 0.00 0.17 0.00 87 1013.5
20260506090023 51 207 0.0 3.0 0.00 0.24 0.00 87 1013.6
20260506084532 51 207 1.0 3.0 0.00 0.24 0.00 87 1013.8
20260506083018 51 207 0.0 2.0 0.00 0.24 0.00 86 1014.1
20260506081517 52 207 0.0 3.0 0.00 0.24 0.00 86 1014.1